This is the latest recevied weather packets stored in our database for station/object N0TKN. If no packets are shown the sender has not sent any weather packets the latest 10 day(s).
| Time | Temp. | Humidity | Pressure | Rain* | Wind** | Luminosity | Snow |
|---|---|---|---|---|---|---|---|
| 1777845917 | 27.78° C | 34% | 1007.8 hPa | 0 mm | - | 438 W/m² | - |
| 1777845318 | 27.22° C | 34% | 1007.9 hPa | 0 mm | - | 470 W/m² | - |
| 1777844717 | 27.22° C | 34% | 1007.9 hPa | 0 mm | - | 506 W/m² | - |
| 1777844118 | 27.78° C | 33% | 1007.9 hPa | 0 mm | - | 535 W/m² | - |
| 1777843518 | 27.22° C | 35% | 1008.1 hPa | 0 mm | - | 567 W/m² | - |
| 1777842918 | 27.22° C | 36% | 1008 hPa | 0 mm | - | 594 W/m² | - |
| 1777842318 | 26.67° C | 37% | 1008.1 hPa | 0 mm | - | 624 W/m² | - |
| 1777841716 | 26.67° C | 37% | 1008.3 hPa | 0 mm | - | 654 W/m² | - |
| 1777841116 | 26.67° C | 37% | 1008.4 hPa | 0 mm | - | 679 W/m² | - |
| 1777840516 | 26.67° C | 37% | 1008.5 hPa | 0 mm | - | 706 W/m² | - |
| 1777839916 | 26.67° C | 38% | 1008.6 hPa | 0 mm | - | 732 W/m² | - |
| 1777839316 | 26.11° C | 38% | 1008.6 hPa | 0 mm | - | 755 W/m² | - |
| 1777838717 | 25.56° C | 38% | 1008.8 hPa | 0 mm | - | 778 W/m² | - |
| 1777838117 | 25.56° C | 37% | 1009 hPa | 0 mm | - | 800 W/m² | - |
| 1777837517 | 25.56° C | 38% | 1009.1 hPa | 0 mm | - | 819 W/m² | - |
| 1777836917 | 25.56° C | 38% | 1009.1 hPa | 0 mm | - | 835 W/m² | - |
| 1777836317 | 25° C | 38% | 1009.4 hPa | 0 mm | - | 852 W/m² | - |
| 1777835717 | 25° C | 37% | 1009.6 hPa | 0 mm | - | 867 W/m² | - |
| 1777835117 | 24.44° C | 39% | 1009.7 hPa | 0 mm | - | 880 W/m² | - |
| 1777834517 | 24.44° C | 38% | 1009.8 hPa | 0 mm | - | 890 W/m² | - |
| 1777833918 | 23.89° C | 37% | 1010.2 hPa | 0 mm | - | 901 W/m² | - |
| 1777833318 | 23.89° C | 38% | 1010.3 hPa | 0 mm | - | 910 W/m² | - |
| 1777832718 | 23.33° C | 39% | 1010.4 hPa | 0 mm | - | 916 W/m² | - |
| 1777832119 | 23.33° C | 38% | 1010.7 hPa | 0 mm | - | 919 W/m² | - |
| 1777831519 | 22.78° C | 39% | 1011.1 hPa | 0 mm | - | 922 W/m² | - |
* Rain latest hour (hover to see other rain measurements)
** Current wind speed in m/s (hover to see current wind gust speed)